Time,TemperatureF,DewpointF,PressureIn,WindDirection,WindDirectionDegrees,WindSpeedMPH,WindSpeedGustMPH,Humidity,HourlyPrecipIn,Conditions,Clouds,dailyrainin,SoftwareType,DateUTC
2013-07-13 00:11:00,69.0,-99.9,-100.00,SSE,154,1.0,3.0,-999,0.00,,,0.00,,2013-07-13 05:11:00,
2013-07-13 00:22:00,69.0,-99.9,-100.00,SSE,154,1.0,3.0,-999,0.00,,,0.00,,2013-07-13 05:22:00,
2013-07-13 00:30:00,67.0,-99.9,-100.00,South,178,0.0,1.0,-999,0.00,,,0.00,,2013-07-13 05:30:00,
2013-07-13 01:12:00,67.0,-99.9,-100.00,South,178,0.0,1.0,-999,0.00,,,0.00,,2013-07-13 06:12:00,
2013-07-13 01:22:00,67.0,-99.9,-100.00,South,178,0.0,1.0,-999,0.00,,,0.00,,2013-07-13 06:22:00,
2013-07-13 02:11:00,64.0,-99.9,-100.00,SSE,167,0.0,1.0,-999,0.00,,,0.00,,2013-07-13 07:11:00,
2013-07-13 02:22:00,64.0,-99.9,-100.00,SSE,167,0.0,1.0,-999,0.00,,,0.00,,2013-07-13 07:22:00,
2013-07-13 02:44:00,64.0,-99.9,-100.00,South,177,0.0,0.0,-999,0.00,,,0.00,,2013-07-13 07:44:00,
2013-07-13 02:53:00,64.0,-99.9,-100.00,South,177,0.0,0.0,-999,0.00,,,0.00,,2013-07-13 07:53:00,
2013-07-13 03:12:00,63.0,-99.9,-100.00,South,173,0.0,0.0,-999,0.00,,,0.00,,2013-07-13 08:12:00,
2013-07-13 03:22:00,63.0,-99.9,-100.00,South,173,0.0,0.0,-999,0.00,,,0.00,,2013-07-13 08:22:00,
2013-07-13 03:43:00,63.0,-99.9,-100.00,SSE,168,0.0,1.0,-999,0.00,,,0.00,,2013-07-13 08:43:00,
2013-07-13 03:52:00,63.0,-99.9,-100.00,SSE,168,0.0,1.0,-999,0.00,,,0.00,,2013-07-13 08:52:00,
2013-07-13 04:11:00,63.0,-99.9,-100.00,SSE,159,0.0,1.0,-999,0.00,,,0.00,,2013-07-13 09:11:00,
2013-07-13 04:22:00,63.0,-99.9,-100.00,SSE,159,0.0,1.0,-999,0.00,,,0.00,,2013-07-13 09:22:00,
2013-07-13 04:43:00,62.0,-99.9,-100.00,SSE,166,0.0,1.0,-999,0.00,,,0.00,,2013-07-13 09:43:00,
2013-07-13 04:53:00,62.0,-99.9,-100.00,SSE,166,0.0,1.0,-999,0.00,,,0.00,,2013-07-13 09:53:00,
2013-07-13 05:11:00,62.0,-99.9,-100.00,South,180,0.0,0.0,-999,0.00,,,0.00,,2013-07-13 10:11:00,
2013-07-13 05:22:00,62.0,-99.9,-100.00,South,180,0.0,0.0,-999,0.00,,,0.00,,2013-07-13 10:22:00,
2013-07-13 05:43:00,62.0,-99.9,-100.00,SSE,165,0.0,0.0,-999,0.00,,,0.00,,2013-07-13 10:43:00,
2013-07-13 05:52:00,62.0,-99.9,-100.00,SSE,165,0.0,0.0,-999,0.00,,,0.00,,2013-07-13 10:52:00,
2013-07-13 06:11:00,62.0,-99.9,-100.00,SE,128,1.0,3.0,-999,0.00,,,0.00,,2013-07-13 11:11:00,
2013-07-13 06:22:00,62.0,-99.9,-100.00,SE,128,1.0,3.0,-999,0.00,,,0.00,,2013-07-13 11:22:00,
2013-07-13 06:43:00,62.0,-99.9,-100.00,SE,141,1.0,2.0,-999,0.00,,,0.00,,2013-07-13 11:43:00,
2013-07-13 06:52:00,62.0,-99.9,-100.00,SE,141,1.0,2.0,-999,0.00,,,0.00,,2013-07-13 11:52:00,
2013-07-13 07:12:00,62.0,-99.9,-100.00,South,182,0.0,0.0,-999,0.00,,,0.00,,2013-07-13 12:12:00,
2013-07-13 07:22:00,62.0,-99.9,-100.00,South,182,0.0,0.0,-999,0.00,,,0.00,,2013-07-13 12:22:00,
2013-07-13 07:43:00,67.0,-99.9,-100.00,SSE,161,0.0,0.0,-999,0.00,,,0.00,,2013-07-13 12:43:00,
2013-07-13 07:52:00,67.0,-99.9,-100.00,SSE,161,0.0,0.0,-999,0.00,,,0.00,,2013-07-13 12:52:00,
2013-07-13 08:12:00,70.0,-99.9,-100.00,SSE,164,0.0,1.0,-999,0.00,,,0.00,,2013-07-13 13:12:00,
2013-07-13 08:22:00,70.0,-99.9,-100.00,SSE,164,0.0,1.0,-999,0.00,,,0.00,,2013-07-13 13:22:00,
2013-07-13 08:43:00,73.0,-99.9,-100.00,South,181,1.0,2.0,-999,0.00,,,0.00,,2013-07-13 13:43:00,
2013-07-13 08:53:00,73.0,-99.9,-100.00,South,181,1.0,2.0,-999,0.00,,,0.00,,2013-07-13 13:53:00,
2013-07-13 09:11:00,75.0,-99.9,-100.00,SSE,165,1.0,2.0,-999,0.00,,,0.00,,2013-07-13 14:11:00,
2013-07-13 09:22:00,75.0,-99.9,-100.00,SSE,165,1.0,2.0,-999,0.00,,,0.00,,2013-07-13 14:22:00,
2013-07-13 09:44:00,78.0,-99.9,-100.00,SE,142,1.0,3.0,-999,0.00,,,0.00,,2013-07-13 14:44:00,
2013-07-13 09:53:00,78.0,-99.9,-100.00,SE,142,1.0,3.0,-999,0.00,,,0.00,,2013-07-13 14:53:00,
2013-07-13 10:12:00,78.0,-99.9,-100.00,SE,136,3.0,6.0,-999,0.00,,,0.00,,2013-07-13 15:12:00,
2013-07-13 10:22:00,78.0,-99.9,-100.00,SE,136,3.0,6.0,-999,0.00,,,0.00,,2013-07-13 15:22:00,
2013-07-13 10:43:00,80.0,-99.9,-100.00,SSE,154,1.0,2.0,-999,0.00,,,0.00,,2013-07-13 15:43:00,
2013-07-13 10:53:00,80.0,-99.9,-100.00,SSE,154,1.0,2.0,-999,0.00,,,0.00,,2013-07-13 15:53:00,
2013-07-13 11:12:00,81.0,-99.9,-100.00,SSE,165,2.0,4.0,-999,0.00,,,0.00,,2013-07-13 16:12:00,
2013-07-13 11:22:00,81.0,-99.9,-100.00,SSE,165,2.0,4.0,-999,0.00,,,0.00,,2013-07-13 16:22:00,
2013-07-13 11:30:00,81.0,-99.9,-100.00,SE,130,4.0,8.0,-999,0.00,,,0.00,,2013-07-13 16:30:00,
2013-07-13 11:43:00,81.0,-99.9,-100.00,SE,140,3.0,5.0,-999,0.00,,,0.00,,2013-07-13 16:43:00,
2013-07-13 11:53:00,81.0,-99.9,-100.00,SE,140,3.0,5.0,-999,0.00,,,0.00,,2013-07-13 16:53:00,
2013-07-13 12:12:00,81.0,-99.9,-100.00,SE,130,4.0,8.0,-999,0.00,,,0.00,,2013-07-13 17:12:00,
2013-07-13 12:22:00,81.0,-99.9,-100.00,SE,130,4.0,8.0,-999,0.00,,,0.00,,2013-07-13 17:22:00,
2013-07-13 13:11:00,83.0,-99.9,-100.00,SSE,158,1.0,4.0,-999,0.00,,,0.00,,2013-07-13 18:11:00,
2013-07-13 13:22:00,83.0,-99.9,-100.00,SSE,158,1.0,4.0,-999,0.00,,,0.00,,2013-07-13 18:22:00,
2013-07-13 13:30:00,82.0,-99.9,-100.00,WSW,249,2.0,6.0,-999,0.00,,,0.00,,2013-07-13 18:30:00,
2013-07-13 13:44:00,83.0,-99.9,-100.00,SE,132,2.0,5.0,-999,0.00,,,0.00,,2013-07-13 18:44:00,
2013-07-13 13:53:00,83.0,-99.9,-100.00,SE,132,2.0,5.0,-999,0.00,,,0.00,,2013-07-13 18:53:00,
2013-07-13 14:11:00,82.0,-99.9,-100.00,WSW,249,2.0,6.0,-999,0.00,,,0.00,,2013-07-13 19:11:00,
2013-07-13 14:22:00,82.0,-99.9,-100.00,WSW,249,2.0,6.0,-999,0.00,,,0.00,,2013-07-13 19:22:00,
2013-07-13 15:12:00,83.0,-99.9,-100.00,ESE,115,5.0,9.0,-999,0.00,,,0.00,,2013-07-13 20:12:00,
2013-07-13 15:22:00,83.0,-99.9,-100.00,ESE,115,5.0,9.0,-999,0.00,,,0.00,,2013-07-13 20:22:00,
2013-07-13 15:43:00,87.0,-99.9,-100.00,SSE,157,2.0,3.0,-999,0.00,,,0.00,,2013-07-13 20:43:00,
2013-07-13 15:53:00,87.0,-99.9,-100.00,SSE,157,2.0,3.0,-999,0.00,,,0.00,,2013-07-13 20:53:00,
2013-07-13 16:12:00,83.0,-99.9,-100.00,NE,53,3.0,7.0,-999,0.00,,,0.00,,2013-07-13 21:12:00,
2013-07-13 16:22:00,83.0,-99.9,-100.00,NE,53,3.0,7.0,-999,0.00,,,0.00,,2013-07-13 21:22:00,
2013-07-13 16:43:00,86.0,-99.9,-100.00,East,92,2.0,7.0,-999,0.00,,,0.00,,2013-07-13 21:43:00,
2013-07-13 16:53:00,86.0,-99.9,-100.00,East,92,2.0,7.0,-999,0.00,,,0.00,,2013-07-13 21:53:00,
2013-07-13 17:12:00,85.0,-99.9,-100.00,East,93,5.0,8.0,-999,0.00,,,0.00,,2013-07-13 22:12:00,
2013-07-13 17:22:00,85.0,-99.9,-100.00,East,93,5.0,8.0,-999,0.00,,,0.00,,2013-07-13 22:22:00,
2013-07-13 17:43:00,86.0,-99.9,-100.00,ESE,111,4.0,7.0,-999,0.00,,,0.00,,2013-07-13 22:43:00,
2013-07-13 17:53:00,86.0,-99.9,-100.00,ESE,111,4.0,7.0,-999,0.00,,,0.00,,2013-07-13 22:53:00,
2013-07-13 18:11:00,85.0,-99.9,-100.00,East,100,7.0,10.0,-999,0.00,,,0.00,,2013-07-13 23:11:00,
2013-07-13 18:22:00,85.0,-99.9,-100.00,East,100,7.0,10.0,-999,0.00,,,0.00,,2013-07-13 23:22:00,
2013-07-13 18:30:00,84.0,-99.9,-100.00,ESE,118,7.0,10.0,-999,0.00,,,0.00,,2013-07-13 23:30:00,
2013-07-13 18:43:00,85.0,-99.9,-100.00,ESE,122,6.0,9.0,-999,0.00,,,0.00,,2013-07-13 23:43:00,
2013-07-13 18:53:00,85.0,-99.9,-100.00,ESE,122,6.0,9.0,-999,0.00,,,0.00,,2013-07-13 23:53:00,
2013-07-13 19:00:00,83.0,-99.9,-100.00,ESE,102,6.0,9.0,-999,0.00,,,0.00,,2013-07-14 00:00:00,
2013-07-13 19:12:00,84.0,-99.9,-100.00,ESE,118,7.0,10.0,-999,0.00,,,0.00,,2013-07-14 00:12:00,
2013-07-13 19:22:00,84.0,-99.9,-100.00,ESE,118,7.0,10.0,-999,0.00,,,0.00,,2013-07-14 00:22:00,
2013-07-13 19:42:00,83.0,-99.9,-100.00,ESE,102,6.0,9.0,-999,0.00,,,0.00,,2013-07-14 00:42:00,
2013-07-13 19:53:00,83.0,-99.9,-100.00,ESE,102,6.0,9.0,-999,0.00,,,0.00,,2013-07-14 00:53:00,
2013-07-13 20:30:00,78.0,-99.9,-100.00,East,83,1.0,4.0,-999,0.00,,,0.00,,2013-07-14 01:30:00,
2013-07-13 20:43:00,80.0,-99.9,-100.00,East,88,2.0,4.0,-999,0.00,,,0.00,,2013-07-14 01:43:00,
2013-07-13 20:52:00,80.0,-99.9,-100.00,East,88,2.0,4.0,-999,0.00,,,0.00,,2013-07-14 01:52:00,
2013-07-13 21:12:00,78.0,-99.9,-100.00,East,83,1.0,4.0,-999,0.00,,,0.00,,2013-07-14 02:12:00,
2013-07-13 21:22:00,78.0,-99.9,-100.00,East,83,1.0,4.0,-999,0.00,,,0.00,,2013-07-14 02:22:00,
2013-07-13 22:12:00,76.0,-99.9,-100.00,East,79,1.0,2.0,-999,0.00,,,0.00,,2013-07-14 03:12:00,
2013-07-13 22:22:00,76.0,-99.9,-100.00,East,79,1.0,2.0,-999,0.00,,,0.00,,2013-07-14 03:22:00,
2013-07-13 22:30:00,75.0,-99.9,-100.00,East,96,3.0,4.0,-999,0.00,,,0.00,,2013-07-14 03:30:00,
2013-07-13 22:43:00,76.0,-99.9,-100.00,East,97,2.0,3.0,-999,0.00,,,0.00,,2013-07-14 03:43:00,
2013-07-13 22:53:00,76.0,-99.9,-100.00,East,97,2.0,3.0,-999,0.00,,,0.00,,2013-07-14 03:53:00,
2013-07-13 23:11:00,75.0,-99.9,-100.00,East,96,3.0,4.0,-999,0.00,,,0.00,,2013-07-14 04:11:00,
2013-07-13 23:22:00,75.0,-99.9,-100.00,East,96,3.0,4.0,-999,0.00,,,0.00,,2013-07-14 04:22:00,
2013-07-13 23:30:00,73.0,-99.9,-100.00,East,101,4.0,8.0,-999,0.00,,,0.00,,2013-07-14 04:30:00,